Regional Weather Roundup
Issued by NWS Sterling, VA

Home | Current Version | Previous Version | Graphics & Text | Print | Product List | Glossary On
Versions: 1 2 3 4 5 6 7 8 9 10 11 12 13 14 15 16 17 18 19 20 21 22 23 24 25 26 27 28 29 30 31 32 33 34 35 36 37 38 39 40 41 42 43 44 45 46 47 48 49 50
000
ASUS41 KLWX 280310
RWRLWX

REGIONAL WEATHER ROUNDUP
NATIONAL WEATHER SERVICE BALTIMORE MD/WASHINGTON DC
1000 PM EST FRI FEB 27 2015

Note: "FAIR" indicates few or no clouds below 12,000 feet
with no significant weather and/or obstructions to visibility.
 TC=TEMPERATURE CELSIUS

 * =Non NWS site. Station does not report precipitation (e.g. rain,
    snow, etc.), thunder, or fog.

DCZ001-MDZ009-015-VAZ040>042-051-053>054-280400-
WASHINGTON METRO

CITY           SKY/WX    TMP DP  RH WIND       PRES   REMARKS
WASHINGTON NAT CLEAR     28   4  35 NW17G24   30.64R WCI  16
DULLES         CLEAR     22   2  42 N9        30.62R WCI  12
ANDREWS AFB    CLEAR     24   6  46 N12       30.61R WCI  13
FT BELVOIR     CLEAR     26   2  36 NW6       30.64R
QUANTICO       CLEAR     28   7  41 NE13G23   30.64R WCI  17
COLLEGE PARK*  CLEAR     27   3  36 NW9       30.63R WCI  17
LEESBURG*      CLEAR     23   5  46 N8        30.64R WCI  14
MANASSAS*      CLEAR     25   9  50 NE7       30.63R
GAITHERSBURG*  CLEAR     19   0  42 NW8       30.64R WCI   9

$$

MDZ006>007-011-014-280400-
BALTIMORE METRO

CITY           SKY/WX    TMP DP  RH WIND       PRES   REMARKS
BWI AIRPORT    PTCLDY    23   4  44 NW6       30.61R
MD SCIENCE CTR   N/A     25   3  38 MISG      30.56F
MARTIN STATE   CLEAR     25  12  58 CALM      30.63R
ANNAPOLIS      CLEAR     22  11  62 W5        30.62R
FORT MEADE*    CLEAR     23   3  42 NW6       30.64R

$$

MDZ012-015-019>023-280400-
MARYLAND EASTERN SHORE

CITY           SKY/WX    TMP DP  RH WIND       PRES   REMARKS
OCEAN CITY     CLEAR     22  13  68 N5        30.60R
SALISBURY      CLEAR     22  14  71 CALM      30.59R
BAY BRIDGE AP*   N/A     23  14  68 CALM      30.62R
CAMBRIDGE*     CLEAR     28  14  54 N6        30.59R
EASTON*        CLEAR     24  16  70 CALM      30.64

$$

MDZ017>025-280400-
SOUTHERN MARYLAND

CITY           SKY/WX    TMP DP  RH WIND       PRES   REMARKS
PATUXENT RIVER CLEAR     26  15  63 N8        30.59R WCI  18
ST INIGOES     CLEAR     22  14  71 CALM      30.59R
LEONARDTOWN*   CLEAR     21  18  86 CALM      30.61R

$$

MDZ003>005-280400-
NORTH CENTRAL MARYLAND

CITY           SKY/WX    TMP DP  RH WIND       PRES   REMARKS
FREDERICK*     CLEAR     23  -4  30 N10       30.66R WCI  12
HAGERSTOWN APT CLEAR     19   1  45 N9        30.61R WCI   8
WESTMINSTER*   PTCLDY    18   1  49 NW7       30.58R

$$

MDZ501>502-280400-
WESTERN MARYLAND

CITY           SKY/WX    TMP DP  RH WIND       PRES   REMARKS
OAKLAND*       CLEAR      5  -9  51 NW6       30.42R
CUMBERLAND*    CLEAR     19   0  42 NW7       30.66R

$$

VAZ025>031-280400-
SHENANDOAH VALLEY

CITY           SKY/WX    TMP DP  RH WIND       PRES   REMARKS
WINCHESTER*    CLEAR     23   0  36 NW9       30.61R WCI  13
FRONT ROYAL*   FAIR      21   3  45 CALM      30.59R
LURAY*         FAIR      25   9  50 N8        30.58R WCI  16
NEW MARKET*    FAIR      18   6  57 CALM      30.58R
STAUNTON*      CLEAR     22   5  47 N8        30.57R WCI  13
WAYNESBORO*    FAIR      20   6  54 N6        30.52R

$$

WVZ021-048>050-054>055-280400-
EASTERN WEST VIRGINIA PANHANDLE

CITY           SKY/WX    TMP DP  RH WIND       PRES   REMARKS
MARTINSBURG    CLEAR     20   1  43 NE8       30.62R WCI  10
PETERSBURG*    NOT AVBL

$$

VAZ036>039-050-280400-
CENTRAL FOOTHILLS

CITY           SKY/WX    TMP DP  RH WIND       PRES   REMARKS
CHARLOTTESVILL MOCLDY    27  10  49 CALM      30.57R
CULPEPER*      CLEAR     25   9  50 N9        30.60R WCI  15
ORANGE*        CLEAR     27  10  50 N8        30.60R WCI  18
GORDONSVILLE*  MOCLDY    25   9  50 NE3       30.59R
WARRENTON*     FAIR      25  12  57 N8        30.61R WCI  16

$$

VAZ055>057-280400-
NORTH AND CENTRAL PIEDMONT

CITY           SKY/WX    TMP DP  RH WIND       PRES   REMARKS
FREDERICKSBRG* CLEAR     29   8  40 N6G18     30.61R
STAFFORD*      CLEAR     26   3  37 N9        30.65R WCI  17

$$

NCZ024-NYZ072-PAZ021-071-VAZ022-071-280400-
OTHER REGIONAL OBSERVATIONS

CITY           SKY/WX    TMP DP  RH WIND       PRES   REMARKS
NEW YORK CITY  CLEAR     24   0  35 MISG      30.59R
PHILADELPHIA   PTCLDY    25   4  40 NW6       30.61R
PITTSBURGH     CLEAR      8  -3  61 CALM      30.61R
ROANOKE        CLEAR     24   6  46 N15       30.56R WCI  11
RICHMOND       MOCLDY    28  15  58 NE3       30.58R
RALEIGH        PTCLDY    34  17  50 NE6       30.52R

$$

ANZ530>537-280400-
MARINE OBSERVATIONS

STATION/POSITION TIME  TEMP    WIND        PRES
                       AIR SEA DIR/SP/G
                 (UTC) (F)     (DEG/KT/KT) (MB)
THOMAS PT LIGHT  0300   27 31  350/  7/  8 1037.9R
BALT KEY BRIDGE  0200   27     340/  7/  8 1036.0R
COVE POINT       0200   27      40/ 10/ 12 1035.2R
LEWISETTA        0200   28 32              1035.3R
SOLOMONS ISLAND  0200      33                N/A

$$




USA.gov is the U.S. government's official web portal to all federal, state and local government web resources and services.